Location: Memphis International Airport Police
(35.0443°N, 89.9815°W)
Time: 18:06:54
(UTC+00:00)

Envisat - Pass Details

Date: 26 September 2023
Orbit: 762 x 764 km, 98.3° (Epoch: 11 December)

Event Time Altitude Azimuth Distance (km) Brightness Sun altitude
Rises 10:33:07 0° 358° (N) 3,236 6.3 -16.6°
Reaches altitude 10° 10:35:46 10° 345° (NNW) 2,306 5.4 -16.1°
Maximum altitude 10:39:51 25° 292° (WNW) 1,507 4.0 -15.3°
Enters shadow 10:41:01 23° 270° (W) 1,587 4.0 -15.1°
